| time (UTC) | temp C | wind direction | speed KPH | gust KPH | rain 1hr cm | rain 24hr cm | rain mn cm | humidity % | barometer mb |
| 20260507115059 | 11 | 78 | 0.0 | 1.6 | 0.00 | 0.36 | 0.36 | 90 | 1011.5 |
| 20260507114555 | 11 | 50 | 0.0 | 3.2 | 0.00 | 0.36 | 0.36 | 92 | 1011.2 |
| 20260507114053 | 11 | 113 | 3.2 | 3.2 | 0.00 | 0.36 | 0.36 | 92 | 1011.3 |
| 20260507113549 | 11 | 269 | 0.0 | 1.6 | 0.00 | 0.36 | 0.36 | 94 | 1011.0 |
| 20260507113047 | 11 | 57 | 0.0 | 3.2 | 0.00 | 0.36 | 0.36 | 95 | 1011.2 |
| 20260507112544 | 11 | 339 | 0.0 | 0.0 | 0.00 | 0.36 | 0.36 | 95 | 1011.2 |
| 20260507112041 | 11 | 167 | 0.0 | 1.6 | 0.00 | 0.36 | 0.36 | 95 | 1011.6 |
| 20260507111538 | 11 | 166 | 0.0 | 3.2 | 0.00 | 0.36 | 0.36 | 95 | 1011.5 |
| 20260507111035 | 11 | 113 | 0.0 | 0.0 | 0.00 | 0.36 | 0.36 | 95 | 1011.3 |
| 20260507110531 | 11 | 113 | 0.0 | 0.0 | 0.00 | 0.36 | 0.36 | 95 | 1011.2 |
| 20260507110027 | 11 | 113 | 0.0 | 0.0 | 0.00 | 0.36 | 0.36 | 96 | 1011.3 |
| 20260507105525 | 11 | 113 | 0.0 | 3.2 | 0.00 | 0.36 | 0.36 | 96 | 1011.2 |
| 20260507105020 | 11 | 141 | 0.0 | 3.2 | 0.00 | 0.36 | 0.36 | 95 | 1010.8 |
| 20260507104518 | 11 | 117 | 0.0 | 3.2 | 0.00 | 0.36 | 0.36 | 95 | 1011.1 |
| 20260507104015 | 10 | 89 | 0.0 | 0.0 | 0.00 | 0.36 | 0.36 | 95 | 1010.9 |
| 20260507103505 | 10 | 72 | 0.0 | 0.0 | 0.00 | 0.36 | 0.36 | 95 | 1010.8 |
| 20260507103001 | 10 | 116 | 0.0 | 0.0 | 0.00 | 0.36 | 0.36 | 95 | 1010.7 |
| 20260507102458 | 10 | 89 | 0.0 | 0.0 | 0.00 | 0.36 | 0.36 | 95 | 1010.7 |
| 20260507101954 | 10 | 135 | 0.0 | 0.0 | 0.00 | 0.36 | 0.36 | 95 | 1010.8 |
| 20260507101449 | 10 | 95 | 1.6 | 3.2 | 0.00 | 0.36 | 0.36 | 95 | 1010.6 |
| 20260507100946 | 11 | 32 | 0.0 | 0.0 | 0.00 | 0.36 | 0.36 | 95 | 1010.5 |
| 20260507100444 | 11 | 126 | 0.0 | 3.2 | 0.00 | 0.36 | 0.36 | 95 | 1010.4 |
| 20260507095942 | 11 | 128 | 3.2 | 3.2 | 0.00 | 0.36 | 0.36 | 95 | 1010.3 |
| 20260507095439 | 11 | 80 | 0.0 | 0.0 | 0.00 | 0.36 | 0.36 | 95 | 1010.4 |
| 20260507094936 | 11 | 103 | 0.0 | 0.0 | 0.00 | 0.36 | 0.36 | 95 | 1010.4 |
| 20260507094432 | 11 | 76 | 0.0 | 1.6 | 0.00 | 0.36 | 0.36 | 95 | 1010.4 |
| 20260507093929 | 11 | 49 | 0.0 | 1.6 | 0.00 | 0.36 | 0.36 | 95 | 1010.3 |
| 20260507093427 | 11 | 95 | 0.0 | 1.6 | 0.00 | 0.36 | 0.36 | 95 | 1010.5 |
| 20260507092925 | 11 | 124 | 0.0 | 1.6 | 0.00 | 0.36 | 0.36 | 95 | 1010.7 |
| 20260507092421 | 11 | 100 | 0.0 | 1.6 | 0.00 | 0.36 | 0.36 | 95 | 1010.4 |
| 20260507091918 | 11 | 91 | 1.6 | 3.2 | 0.00 | 0.36 | 0.36 | 95 | 1010.5 |
| 20260507091414 | 11 | 109 | 1.6 | 3.2 | 0.00 | 0.36 | 0.36 | 95 | 1010.7 |
| 20260507090910 | 11 | 112 | 0.0 | 4.8 | 0.00 | 0.36 | 0.36 | 95 | 1010.6 |
| 20260507090406 | 11 | 102 | 0.0 | 1.6 | 0.00 | 0.36 | 0.36 | 95 | 1010.4 |
| 20260507085903 | 11 | 135 | 0.0 | 1.6 | 0.00 | 0.36 | 0.36 | 95 | 1010.4 |
| 20260507085400 | 11 | 69 | 0.0 | 1.6 | 0.00 | 0.36 | 0.36 | 95 | 1010.1 |
| 20260507084858 | 11 | 124 | 0.0 | 3.2 | 0.00 | 0.36 | 0.36 | 95 | 1010.2 |
| 20260507084354 | 11 | 49 | 0.0 | 1.6 | 0.00 | 0.36 | 0.36 | 95 | 1010.2 |
| 20260507083851 | 11 | 142 | 0.0 | 1.6 | 0.00 | 0.36 | 0.36 | 95 | 1010.2 |
| 20260507083347 | 11 | 119 | 0.0 | 3.2 | 0.00 | 0.36 | 0.36 | 95 | 1009.9 |
| 20260507082844 | 11 | 129 | 1.6 | 1.6 | 0.00 | 0.36 | 0.36 | 95 | 1009.8 |
| 20260507082339 | 11 | 113 | 0.0 | 3.2 | 0.00 | 0.36 | 0.36 | 95 | 1009.6 |
| 20260507081837 | 11 | 70 | 1.6 | 3.2 | 0.00 | 0.36 | 0.36 | 95 | 1009.7 |
| 20260507081333 | 11 | 52 | 0.0 | 1.6 | 0.00 | 0.36 | 0.36 | 95 | 1009.4 |
| 20260507080830 | 11 | 73 | 1.6 | 4.8 | 0.00 | 0.36 | 0.36 | 95 | 1009.6 |
| 20260507080326 | 11 | 80 | 0.0 | 1.6 | 0.00 | 0.36 | 0.36 | 95 | 1009.7 |
| 20260507075821 | 11 | 89 | 0.0 | 3.2 | 0.00 | 0.36 | 0.36 | 95 | 1009.6 |
| 20260507075317 | 11 | 79 | 4.8 | 4.8 | 0.00 | 0.36 | 0.36 | 95 | 1009.4 |
| 20260507074814 | 11 | 51 | 1.6 | 3.2 | 0.00 | 0.36 | 0.36 | 95 | 1009.4 |
| 20260507074312 | 11 | 76 | 0.0 | 1.6 | 0.00 | 0.36 | 0.36 | 95 | 1009.7 |
| 20260507073809 | 11 | 95 | 0.0 | 1.6 | 0.05 | 0.36 | 0.36 | 95 | 1009.3 |
| 20260507073306 | 11 | 65 | 1.6 | 1.6 | 0.05 | 0.36 | 0.36 | 95 | 1009.6 |
| 20260507072803 | 11 | 72 | 0.0 | 3.2 | 0.00 | 0.33 | 0.33 | 94 | 1009.6 |
| 20260507072300 | 11 | 56 | 0.0 | 1.6 | 0.05 | 0.33 | 0.33 | 94 | 1009.4 |
| 20260507071757 | 11 | 53 | 0.0 | 3.2 | 0.05 | 0.33 | 0.33 | 94 | 1009.7 |
| 20260507071254 | 11 | 101 | 3.2 | 3.2 | 0.05 | 0.33 | 0.33 | 94 | 1009.5 |
| 20260507070751 | 11 | 354 | 0.0 | 4.8 | 0.13 | 0.33 | 0.33 | 95 | 1009.4 |
| 20260507070248 | 11 | 105 | 4.8 | 4.8 | 0.05 | 0.33 | 0.33 | 95 | 1009.6 |
| 20260507065744 | 12 | 63 | 3.2 | 3.2 | 0.00 | 0.30 | 0.30 | 95 | 1009.8 |
| 20260507065241 | 12 | 105 | 3.2 | 3.2 | 0.00 | 0.30 | 0.30 | 95 | 1009.8 |
| 20260507064738 | 12 | 97 | 1.6 | 3.2 | 0.00 | 0.30 | 0.30 | 95 | 1009.9 |
| 20260507064237 | 12 | 73 | 1.6 | 3.2 | 0.00 | 0.30 | 0.30 | 95 | 1009.7 |
| 20260507063734 | 12 | 98 | 1.6 | 3.2 | 0.00 | 0.30 | 0.30 | 95 | 1009.4 |
| 20260507063231 | 12 | 50 | 0.0 | 3.2 | 0.00 | 0.30 | 0.30 | 95 | 1009.5 |
| 20260507062728 | 12 | 70 | 1.6 | 3.2 | 0.00 | 0.30 | 0.30 | 95 | 1009.2 |
| 20260507062225 | 12 | 44 | 0.0 | 3.2 | 0.00 | 0.30 | 0.30 | 95 | 1009.5 |
| 20260507061723 | 12 | 114 | 0.0 | 4.8 | 0.00 | 0.30 | 0.30 | 95 | 1009.7 |
| 20260507061221 | 12 | 129 | 0.0 | 1.6 | 0.00 | 0.30 | 0.30 | 95 | 1009.7 |
| 20260507060719 | 12 | 58 | 1.6 | 3.2 | 0.00 | 0.30 | 0.30 | 95 | 1009.6 |
| 20260507060215 | 12 | 32 | 0.0 | 4.8 | 0.00 | 0.30 | 0.30 | 95 | 1009.5 |
| 20260507055711 | 12 | 68 | 0.0 | 3.2 | 0.00 | 0.30 | 0.30 | 95 | 1009.5 |
| 20260507055207 | 12 | 92 | 1.6 | 4.8 | 0.00 | 0.30 | 0.30 | 95 | 1009.7 |
| 20260507054703 | 12 | 129 | 0.0 | 1.6 | 0.00 | 0.30 | 0.30 | 95 | 1009.7 |
| 20260507054200 | 12 | 32 | 1.6 | 1.6 | 0.00 | 0.30 | 0.30 | 95 | 1009.6 |
| 20260507053658 | 12 | 106 | 1.6 | 3.2 | 0.00 | 0.30 | 0.30 | 95 | 1009.7 |
| 20260507053156 | 12 | 224 | 4.8 | 4.8 | 0.00 | 0.30 | 0.30 | 95 | 1009.9 |
| 20260507052654 | 12 | 129 | 0.0 | 4.8 | 0.05 | 0.30 | 0.30 | 94 | 1009.7 |
| 20260507052150 | 12 | 125 | 0.0 | 3.2 | 0.05 | 0.30 | 0.30 | 94 | 1009.7 |
| 20260507051648 | 12 | 135 | 0.0 | 0.0 | 0.00 | 0.30 | 0.30 | 94 | 1009.8 |
| 20260507051144 | 12 | 124 | 0.0 | 3.2 | 0.05 | 0.30 | 0.30 | 94 | 1009.3 |
| 20260507050641 | 13 | 102 | 1.6 | 3.2 | 0.13 | 0.30 | 0.30 | 93 | 1009.7 |
| 20260507050138 | 13 | 109 | 3.2 | 3.2 | 0.05 | 0.28 | 0.28 | 93 | 1009.7 |
| 20260507045635 | 13 | 102 | 3.2 | 3.2 | 0.36 | 0.28 | 0.28 | 92 | 1009.7 |
| 20260507045131 | 13 | 356 | 0.0 | 4.8 | 0.79 | 0.28 | 0.28 | 91 | 1010.1 |
| 20260507044628 | 13 | 137 | 1.6 | 3.2 | 0.53 | 0.20 | 0.20 | 91 | 1009.9 |
| 20260507044125 | 13 | 55 | 1.6 | 3.2 | 0.66 | 0.15 | 0.15 | 89 | 1009.7 |
| 20260507043621 | 13 | 76 | 1.6 | 3.2 | 0.43 | 0.10 | 0.10 | 88 | 1009.4 |
| 20260507043119 | 14 | 96 | 6.4 | 6.4 | 0.00 | 0.03 | 0.03 | 86 | 1009.6 |
| 20260507042615 | 14 | 102 | 1.6 | 1.6 | 0.05 | 0.03 | 0.03 | 86 | 1009.7 |
| 20260507042110 | 14 | 102 | 4.8 | 6.4 | 0.05 | 0.03 | 0.03 | 86 | 1009.4 |
| 20260507041607 | 15 | 104 | 0.0 | 4.8 | 0.05 | 0.03 | 0.03 | 85 | 1009.7 |
| 20260507041104 | 15 | 91 | 4.8 | 4.8 | 0.05 | 0.03 | 0.03 | 85 | 1009.3 |
| 20260507040600 | 15 | 72 | 3.2 | 3.2 | 0.05 | 0.00 | 0.00 | 83 | 1009.3 |
| 20260507040057 | 15 | 32 | 3.2 | 4.8 | 0.00 | 0.00 | 0.00 | 81 | 1009.3 |
| 20260507035553 | 15 | 44 | 1.6 | 3.2 | 0.00 | 0.43 | 0.43 | 80 | 1009.0 |
| 20260507035049 | 16 | 61 | 3.2 | 4.8 | 0.00 | 0.43 | 0.43 | 79 | 1009.1 |
| 20260507034546 | 16 | 70 | 1.6 | 4.8 | 0.00 | 0.43 | 0.43 | 79 | 1008.7 |
| 20260507034044 | 16 | 74 | 1.6 | 4.8 | 0.00 | 0.43 | 0.43 | 80 | 1008.9 |
| 20260507033542 | 16 | 22 | 0.0 | 1.6 | 0.00 | 0.43 | 0.43 | 79 | 1009.0 |
| 20260507033039 | 16 | 45 | 4.8 | 4.8 | 0.00 | 0.43 | 0.43 | 79 | 1008.6 |
| 20260507032536 | 16 | 108 | 3.2 | 3.2 | 0.00 | 0.43 | 0.43 | 79 | 1009.1 |
| 20260507032032 | 16 | 87 | 4.8 | 6.4 | 0.00 | 0.43 | 0.43 | 78 | 1009.0 |
| 20260507031528 | 16 | 269 | 1.6 | 4.8 | 0.00 | 0.43 | 0.43 | 78 | 1009.0 |
| 20260507031026 | 16 | 66 | 0.0 | 3.2 | 0.00 | 0.43 | 0.43 | 78 | 1009.1 |
| 20260507030522 | 16 | 240 | 4.8 | 4.8 | 0.00 | 0.43 | 0.43 | 78 | 1009.0 |
| 20260507030020 | 16 | 342 | 0.0 | 4.8 | 0.00 | 0.43 | 0.43 | 78 | 1008.6 |
| 20260507025517 | 16 | 78 | 1.6 | 3.2 | 0.00 | 0.43 | 0.43 | 78 | 1008.5 |
| 20260507025015 | 16 | 47 | 4.8 | 4.8 | 0.00 | 0.43 | 0.43 | 77 | 1008.5 |
| 20260507024512 | 16 | 29 | 0.0 | 4.8 | 0.00 | 0.43 | 0.43 | 78 | 1008.7 |
| 20260507024009 | 16 | 51 | 3.2 | 8.0 | 0.00 | 0.43 | 0.43 | 77 | 1008.5 |
| 20260507023504 | 16 | 66 | 3.2 | 4.8 | 0.00 | 0.43 | 0.43 | 77 | 1008.6 |
| 20260507023002 | 16 | 50 | 8.0 | 8.0 | 0.00 | 0.43 | 0.43 | 78 | 1008.5 |
| 20260507022459 | 16 | 43 | 1.6 | 4.8 | 0.00 | 0.43 | 0.43 | 78 | 1008.4 |
| 20260507021954 | 16 | 75 | 1.6 | 4.8 | 0.00 | 0.43 | 0.43 | 79 | 1008.3 |
| 20260507021450 | 16 | 47 | 3.2 | 6.4 | 0.00 | 0.43 | 0.43 | 80 | 1008.3 |
| 20260507020947 | 17 | 56 | 1.6 | 3.2 | 0.00 | 0.43 | 0.43 | 80 | 1008.3 |
| 20260507020444 | 17 | 11 | 3.2 | 6.4 | 0.00 | 0.43 | 0.43 | 80 | 1008.7 |
| 20260507015941 | 17 | 67 | 1.6 | 4.8 | 0.00 | 0.43 | 0.43 | 82 | 1008.5 |
| 20260507015439 | 17 | 65 | 4.8 | 4.8 | 0.00 | 0.43 | 0.43 | 84 | 1008.5 |
| 20260507014936 | 17 | 18 | 0.0 | 3.2 | 0.00 | 0.43 | 0.43 | 85 | 1008.3 |
| 20260507014432 | 17 | 42 | 3.2 | 3.2 | 0.00 | 0.43 | 0.43 | 86 | 1008.0 |
| 20260507013929 | 17 | 69 | 3.2 | 4.8 | 0.00 | 0.43 | 0.43 | 86 | 1008.0 |
| 20260507013426 | 17 | 102 | 3.2 | 4.8 | 0.00 | 0.43 | 0.43 | 86 | 1008.3 |
| 20260507012923 | 18 | 96 | 1.6 | 4.8 | 0.00 | 0.43 | 0.43 | 86 | 1008.5 |
| 20260507012420 | 18 | 82 | 0.0 | 3.2 | 0.00 | 0.43 | 0.43 | 85 | 1008.3 |
| 20260507011917 | 18 | 346 | 3.2 | 4.8 | 0.00 | 0.43 | 0.43 | 84 | 1008.2 |
| 20260507011414 | 18 | 293 | 0.0 | 3.2 | 0.00 | 0.43 | 0.43 | 82 | 1008.4 |
| 20260507010913 | 18 | 320 | 3.2 | 4.8 | 0.00 | 0.43 | 0.43 | 82 | 1008.3 |
| 20260507010409 | 18 | 203 | 3.2 | 6.4 | 0.00 | 0.43 | 0.43 | 82 | 1008.6 |
| 20260507005907 | 18 | 254 | 1.6 | 9.7 | 0.05 | 0.43 | 0.43 | 81 | 1008.4 |
| 20260507005403 | 18 | 87 | 3.2 | 4.8 | 0.05 | 0.43 | 0.43 | 82 | 1008.0 |
| 20260507004900 | 19 | 53 | 0.0 | 4.8 | 0.00 | 0.41 | 0.41 | 83 | 1008.1 |
| 20260507004357 | 19 | 3 | 0.0 | 3.2 | 0.00 | 0.41 | 0.41 | 82 | 1008.1 |
| 20260507003854 | 19 | 217 | 0.0 | 0.0 | 0.00 | 0.41 | 0.41 | 82 | 1007.9 |
| 20260507003349 | 19 | 166 | 0.0 | 1.6 | 0.00 | 0.41 | 0.41 | 82 | 1008.0 |
| 20260507002845 | 19 | 200 | 0.0 | 3.2 | 0.00 | 0.41 | 0.41 | 82 | 1007.8 |
| 20260507002341 | 19 | 187 | 1.6 | 3.2 | 0.00 | 0.41 | 0.41 | 82 | 1008.0 |
| 20260507001838 | 19 | 156 | 1.6 | 4.8 | 0.00 | 0.41 | 0.41 | 81 | 1007.6 |
| 20260507001335 | 20 | 158 | 4.8 | 4.8 | 0.00 | 0.41 | 0.41 | 81 | 1007.4 |
| 20260507000832 | 20 | 157 | 0.0 | 1.6 | 0.00 | 0.41 | 0.41 | 81 | 1007.6 |
| 20260507000328 | 20 | 173 | 1.6 | 3.2 | 0.00 | 0.41 | 0.41 | 80 | 1007.7 |
| 20260506235824 | 20 | 158 | 3.2 | 3.2 | 0.00 | 0.41 | 0.41 | 80 | 1007.6 |
| 20260506235320 | 20 | 144 | 0.0 | 0.0 | 0.00 | 0.41 | 0.41 | 79 | 1007.6 |
| 20260506234817 | 20 | 195 | 0.0 | 3.2 | 0.00 | 0.41 | 0.41 | 79 | 1007.6 |
| 20260506234314 | 20 | 129 | 0.0 | 1.6 | 0.00 | 0.41 | 0.41 | 78 | 1006.9 |
| 20260506233811 | 20 | 210 | 1.6 | 3.2 | 0.00 | 0.41 | 0.41 | 78 | 1007.0 |
| 20260506233307 | 20 | 276 | 0.0 | 4.8 | 0.00 | 0.41 | 0.41 | 77 | 1007.5 |
| 20260506232805 | 20 | 219 | 4.8 | 4.8 | 0.00 | 0.41 | 0.41 | 77 | 1007.3 |
| 20260506232300 | 20 | 162 | 4.8 | 8.0 | 0.00 | 0.41 | 0.41 | 77 | 1007.0 |
| 20260506231757 | 20 | 179 | 3.2 | 4.8 | 0.00 | 0.41 | 0.41 | 77 | 1006.9 |
| 20260506231255 | 20 | 232 | 0.0 | 4.8 | 0.00 | 0.41 | 0.41 | 77 | 1006.9 |
| 20260506230752 | 20 | 131 | 0.0 | 8.0 | 0.00 | 0.41 | 0.41 | 77 | 1007.0 |
| 20260506230249 | 20 | 219 | 1.6 | 6.4 | 0.00 | 0.41 | 0.41 | 76 | 1007.2 |
| 20260506225745 | 20 | 196 | 1.6 | 6.4 | 0.00 | 0.41 | 0.41 | 76 | 1006.9 |
| 20260506225243 | 20 | 248 | 0.0 | 8.0 | 0.00 | 0.41 | 0.41 | 76 | 1006.9 |
| 20260506224739 | 20 | 286 | 0.0 | 4.8 | 0.00 | 0.41 | 0.41 | 76 | 1006.7 |
| 20260506224236 | 20 | 196 | 4.8 | 8.0 | 0.00 | 0.41 | 0.41 | 75 | 1006.5 |
| 20260506223732 | 20 | 149 | 3.2 | 4.8 | 0.00 | 0.41 | 0.41 | 76 | 1006.9 |
| 20260506223228 | 20 | 188 | 1.6 | 4.8 | 0.00 | 0.41 | 0.41 | 76 | 1006.8 |
| 20260506222725 | 20 | 156 | 4.8 | 6.4 | 0.00 | 0.41 | 0.41 | 76 | 1006.9 |
| 20260506222220 | 20 | 209 | 1.6 | 3.2 | 0.00 | 0.41 | 0.41 | 76 | 1007.0 |
| 20260506221719 | 20 | 182 | 4.8 | 9.7 | 0.00 | 0.41 | 0.41 | 76 | 1006.7 |
| 20260506221217 | 20 | 180 | 1.6 | 8.0 | 0.00 | 0.41 | 0.41 | 75 | 1006.8 |
| 20260506220714 | 20 | 163 | 4.8 | 4.8 | 0.00 | 0.41 | 0.41 | 75 | 1006.9 |
| 20260506220208 | 20 | 175 | 4.8 | 11.3 | 0.00 | 0.41 | 0.41 | 74 | 1006.7 |
| 20260506215705 | 20 | 226 | 11.3 | 11.3 | 0.00 | 0.41 | 0.41 | 74 | 1007.2 |
| 20260506215201 | 20 | 172 | 3.2 | 4.8 | 0.00 | 0.41 | 0.41 | 74 | 1006.9 |
| 20260506214657 | 20 | 185 | 4.8 | 14.5 | 0.00 | 0.41 | 0.41 | 73 | 1006.9 |
| 20260506214155 | 21 | 119 | 3.2 | 11.3 | 0.00 | 0.41 | 0.41 | 73 | 1006.8 |
| 20260506213653 | 21 | 209 | 9.7 | 9.7 | 0.00 | 0.41 | 0.41 | 73 | 1006.7 |
| 20260506213150 | 21 | 154 | 3.2 | 4.8 | 0.00 | 0.41 | 0.41 | 73 | 1006.5 |
| 20260506212647 | 21 | 177 | 3.2 | 17.7 | 0.00 | 0.41 | 0.41 | 72 | 1006.6 |
| 20260506212142 | 20 | 215 | 6.4 | 11.3 | 0.00 | 0.41 | 0.41 | 73 | 1006.5 |
| 20260506211638 | 20 | 197 | 8.0 | 14.5 | 0.00 | 0.41 | 0.41 | 73 | 1006.5 |
| 20260506211135 | 20 | 157 | 6.4 | 12.9 | 0.00 | 0.41 | 0.41 | 73 | 1006.5 |
| 20260506210631 | 20 | 238 | 3.2 | 8.0 | 0.00 | 0.41 | 0.41 | 73 | 1006.6 |
| 20260506210128 | 21 | 185 | 3.2 | 8.0 | 0.00 | 0.41 | 0.41 | 73 | 1006.4 |
| 20260506205625 | 21 | 210 | 16.1 | 19.3 | 0.00 | 0.41 | 0.41 | 71 | 1006.2 |
| 20260506205120 | 21 | 171 | 4.8 | 8.0 | 0.00 | 0.41 | 0.41 | 71 | 1006.1 |
| 20260506204618 | 21 | 184 | 3.2 | 8.0 | 0.00 | 0.41 | 0.41 | 70 | 1006.4 |
| 20260506204115 | 21 | 171 | 8.0 | 11.3 | 0.00 | 0.41 | 0.41 | 70 | 1006.0 |
| 20260506203614 | 21 | 209 | 6.4 | 8.0 | 0.00 | 0.41 | 0.41 | 72 | 1006.2 |
| 20260506203109 | 20 | 144 | 3.2 | 8.0 | 0.00 | 0.41 | 0.41 | 73 | 1006.3 |
| 20260506202608 | 21 | 280 | 3.2 | 9.7 | 0.00 | 0.41 | 0.41 | 73 | 1006.3 |
| 20260506202104 | 20 | 225 | 8.0 | 14.5 | 0.00 | 0.41 | 0.41 | 73 | 1006.6 |
| 20260506201601 | 20 | 258 | 4.8 | 9.7 | 0.00 | 0.41 | 0.41 | 73 | 1006.2 |
| 20260506201057 | 20 | 231 | 3.2 | 11.3 | 0.00 | 0.41 | 0.41 | 73 | 1006.3 |
| 20260506200554 | 20 | 200 | 6.4 | 12.9 | 0.00 | 0.41 | 0.41 | 73 | 1006.2 |
| 20260506200051 | 21 | 210 | 4.8 | 14.5 | 0.00 | 0.41 | 0.41 | 72 | 1006.2 |
| 20260506195547 | 21 | 278 | 8.0 | 12.9 | 0.00 | 0.41 | 0.41 | 71 | 1006.3 |
| 20260506195044 | 21 | 137 | 4.8 | 14.5 | 0.00 | 0.41 | 0.41 | 70 | 1006.4 |
| 20260506194542 | 21 | 213 | 4.8 | 11.3 | 0.00 | 0.41 | 0.41 | 71 | 1006.2 |
| 20260506194037 | 21 | 222 | 8.0 | 11.3 | 0.00 | 0.41 | 0.41 | 71 | 1006.3 |
| 20260506193535 | 21 | 210 | 9.7 | 12.9 | 0.00 | 0.41 | 0.41 | 72 | 1006.3 |
| 20260506193032 | 20 | 294 | 6.4 | 8.0 | 0.00 | 0.41 | 0.41 | 74 | 1006.2 |
| 20260506192529 | 20 | 180 | 4.8 | 9.7 | 0.00 | 0.41 | 0.41 | 75 | 1006.5 |
| 20260506192025 | 20 | 168 | 12.9 | 14.5 | 0.00 | 0.41 | 0.41 | 75 | 1006.4 |
| 20260506191522 | 20 | 213 | 4.8 | 9.7 | 0.00 | 0.41 | 0.41 | 76 | 1006.5 |
| 20260506191018 | 20 | 157 | 6.4 | 14.5 | 0.00 | 0.41 | 0.41 | 76 | 1006.8 |
| 20260506190515 | 20 | 167 | 11.3 | 14.5 | 0.00 | 0.41 | 0.41 | 76 | 1006.6 |
| 20260506190012 | 20 | 218 | 11.3 | 19.3 | 0.00 | 0.41 | 0.41 | 76 | 1006.6 |
| 20260506185509 | 20 | 172 | 11.3 | 16.1 | 0.00 | 0.41 | 0.41 | 76 | 1006.7 |
| 20260506185006 | 19 | 199 | 9.7 | 17.7 | 0.00 | 0.41 | 0.41 | 76 | 1007.2 |
| 20260506184503 | 19 | 235 | 12.9 | 19.3 | 0.00 | 0.41 | 0.41 | 77 | 1006.8 |
| 20260506184000 | 19 | 261 | 12.9 | 17.7 | 0.00 | 0.41 | 0.41 | 78 | 1006.9 |
| 20260506183455 | 19 | 198 | 6.4 | 14.5 | 0.00 | 0.41 | 0.41 | 79 | 1007.0 |
| 20260506182953 | 18 | 177 | 6.4 | 8.0 | 0.00 | 0.41 | 0.41 | 79 | 1006.9 |
| 20260506182450 | 18 | 192 | 4.8 | 8.0 | 0.00 | 0.41 | 0.41 | 80 | 1007.0 |
| 20260506181947 | 18 | 188 | 9.7 | 12.9 | 0.00 | 0.41 | 0.41 | 81 | 1007.3 |
| 20260506181445 | 18 | 194 | 4.8 | 9.7 | 0.00 | 0.41 | 0.41 | 81 | 1007.3 |
| 20260506180941 | 18 | 242 | 20.9 | 24.1 | 0.00 | 0.41 | 0.41 | 81 | 1007.3 |
| 20260506180437 | 18 | 236 | 6.4 | 11.3 | 0.00 | 0.41 | 0.41 | 81 | 1007.2 |
| 20260506175929 | 18 | 197 | 4.8 | 12.9 | 0.00 | 0.41 | 0.41 | 83 | 1007.4 |
| 20260506175426 | 18 | 172 | 4.8 | 6.4 | 0.00 | 0.41 | 0.41 | 83 | 1007.3 |
| 20260506174923 | 18 | 186 | 9.7 | 11.3 | 0.00 | 0.41 | 0.41 | 83 | 1007.5 |
| 20260506174420 | 17 | 179 | 4.8 | 19.3 | 0.00 | 0.41 | 0.41 | 83 | 1007.3 |
| 20260506173917 | 17 | 211 | 9.7 | 20.9 | 0.00 | 0.41 | 0.41 | 83 | 1007.4 |
| 20260506173414 | 17 | 171 | 8.0 | 16.1 | 0.00 | 0.41 | 0.41 | 84 | 1007.4 |
| 20260506172911 | 17 | 182 | 11.3 | 24.1 | 0.00 | 0.41 | 0.41 | 83 | 1007.3 |
| 20260506172407 | 17 | 193 | 3.2 | 14.5 | 0.00 | 0.41 | 0.41 | 85 | 1007.4 |
| 20260506171904 | 17 | 224 | 11.3 | 20.9 | 0.00 | 0.41 | 0.41 | 85 | 1007.6 |
| 20260506171401 | 17 | 233 | 11.3 | 19.3 | 0.00 | 0.41 | 0.41 | 85 | 1007.4 |
| 20260506170854 | 17 | 280 | 6.4 | 16.1 | 0.00 | 0.41 | 0.41 | 86 | 1007.6 |
| 20260506170350 | 17 | 210 | 12.9 | 17.7 | 0.00 | 0.41 | 0.41 | 86 | 1007.4 |
| 20260506165849 | 17 | 211 | 6.4 | 16.1 | 0.00 | 0.41 | 0.41 | 87 | 1007.4 |
| 20260506165347 | 17 | 231 | 11.3 | 19.3 | 0.00 | 0.41 | 0.41 | 87 | 1007.5 |
| 20260506164843 | 16 | 158 | 3.2 | 14.5 | 0.00 | 0.41 | 0.41 | 88 | 1007.6 |
| 20260506164339 | 16 | 211 | 4.8 | 17.7 | 0.00 | 0.41 | 0.41 | 88 | 1007.4 |
| 20260506163837 | 16 | 165 | 3.2 | 9.7 | 0.00 | 0.41 | 0.41 | 88 | 1007.7 |
| 20260506163331 | 16 | 183 | 4.8 | 17.7 | 0.00 | 0.41 | 0.41 | 88 | 1007.7 |
| 20260506162827 | 16 | 214 | 8.0 | 12.9 | 0.00 | 0.41 | 0.41 | 89 | 1007.6 |
| 20260506162325 | 16 | 198 | 6.4 | 14.5 | 0.00 | 0.41 | 0.41 | 89 | 1007.5 |
| 20260506161823 | 16 | 163 | 8.0 | 14.5 | 0.00 | 0.41 | 0.41 | 89 | 1007.6 |
| 20260506161320 | 16 | 209 | 9.7 | 17.7 | 0.00 | 0.41 | 0.41 | 89 | 1008.0 |
| 20260506160818 | 16 | 258 | 11.3 | 12.9 | 0.00 | 0.41 | 0.41 | 90 | 1007.8 |
| 20260506160314 | 16 | 141 | 8.0 | 16.1 | 0.00 | 0.41 | 0.41 | 90 | 1007.9 |
| 20260506155813 | 16 | 208 | 4.8 | 19.3 | 0.00 | 0.41 | 0.41 | 91 | 1007.8 |
| 20260506155309 | 16 | 180 | 8.0 | 19.3 | 0.00 | 0.41 | 0.41 | 91 | 1007.9 |
| 20260506153427 | 16 | 196 | 4.8 | 20.9 | 0.00 | 0.41 | 0.41 | 91 | 1008.1 |
| 20260506152925 | 16 | 226 | 6.4 | 11.3 | 0.00 | 0.41 | 0.41 | 92 | 1007.7 |
| 20260506152421 | 15 | 196 | 6.4 | 19.3 | 0.05 | 0.41 | 0.41 | 92 | 1007.9 |
| 20260506151920 | 15 | 172 | 9.7 | 20.9 | 0.05 | 0.41 | 0.41 | 93 | 1008.0 |
| 20260506151417 | 15 | 204 | 9.7 | 16.1 | 0.00 | 0.41 | 0.41 | 93 | 1008.2 |
| 20260506150914 | 15 | 145 | 6.4 | 16.1 | 0.00 | 0.41 | 0.41 | 93 | 1008.2 |
| 20260506150410 | 15 | 213 | 8.0 | 12.9 | 0.05 | 0.41 | 0.41 | 93 | 1008.2 |
| 20260506145908 | 15 | 166 | 8.0 | 22.5 | 0.13 | 0.41 | 0.41 | 93 | 1008.6 |
| 20260506145403 | 15 | 178 | 4.8 | 14.5 | 0.13 | 0.38 | 0.38 | 93 | 1008.7 |
| 20260506144901 | 15 | 155 | 9.7 | 19.3 | 0.05 | 0.38 | 0.38 | 93 | 1008.7 |
| 20260506144357 | 15 | 176 | 4.8 | 19.3 | 0.05 | 0.38 | 0.38 | 93 | 1008.8 |
| 20260506143856 | 15 | 181 | 6.4 | 22.5 | 0.13 | 0.38 | 0.38 | 93 | 1008.4 |
| 20260506143352 | 15 | 218 | 4.8 | 14.5 | 0.13 | 0.36 | 0.36 | 93 | 1008.7 |
| 20260506142851 | 15 | 168 | 4.8 | 14.5 | 0.13 | 0.36 | 0.36 | 92 | 1008.2 |
| 20260506142348 | 15 | 208 | 8.0 | 11.3 | 0.13 | 0.33 | 0.33 | 92 | 1008.4 |
| 20260506141847 | 15 | 158 | 4.8 | 14.5 | 0.05 | 0.33 | 0.33 | 92 | 1008.7 |
| 20260506141344 | 15 | 201 | 9.7 | 16.1 | 0.13 | 0.33 | 0.33 | 92 | 1008.5 |
| 20260506140842 | 16 | 165 | 4.8 | 16.1 | 0.18 | 0.30 | 0.30 | 92 | 1008.3 |
| 20260506140339 | 16 | 186 | 6.4 | 17.7 | 0.18 | 0.30 | 0.30 | 91 | 1008.4 |
| 20260506135836 | 16 | 161 | 11.3 | 14.5 | 0.13 | 0.28 | 0.28 | 91 | 1008.5 |
| 20260506135332 | 16 | 190 | 8.0 | 20.9 | 0.23 | 0.28 | 0.28 | 91 | 1008.6 |
| 20260506134829 | 16 | 188 | 6.4 | 17.7 | 0.23 | 0.25 | 0.25 | 91 | 1008.4 |
| 20260506134325 | 16 | 163 | 4.8 | 17.7 | 0.23 | 0.23 | 0.23 | 91 | 1008.9 |
| 20260506133823 | 16 | 213 | 6.4 | 14.5 | 0.13 | 0.20 | 0.20 | 91 | 1009.0 |
| 20260506133319 | 16 | 173 | 4.8 | 12.9 | 0.13 | 0.18 | 0.18 | 91 | 1009.1 |
| 20260506132816 | 16 | 227 | 4.8 | 14.5 | 0.13 | 0.18 | 0.18 | 91 | 1009.2 |
| 20260506132313 | 16 | 235 | 8.0 | 14.5 | 0.13 | 0.18 | 0.18 | 90 | 1009.0 |
| 20260506131811 | 16 | 154 | 6.4 | 12.9 | 0.23 | 0.15 | 0.15 | 90 | 1008.8 |
| 20260506131307 | 16 | 230 | 4.8 | 9.7 | 0.36 | 0.15 | 0.15 | 89 | 1008.6 |
| 20260506130804 | 16 | 187 | 3.2 | 8.0 | 0.18 | 0.10 | 0.10 | 88 | 1008.8 |
| 20260506130300 | 16 | 215 | 6.4 | 9.7 | 0.18 | 0.10 | 0.10 | 87 | 1008.9 |
| 20260506125759 | 16 | 211 | 8.0 | 9.7 | 0.18 | 0.08 | 0.08 | 86 | 1008.7 |
| 20260506125256 | 16 | 193 | 4.8 | 9.7 | 0.18 | 0.05 | 0.05 | 85 | 1008.4 |
| 20260506124755 | 16 | 190 | 4.8 | 8.0 | 0.13 | 0.05 | 0.05 | 84 | 1008.6 |
| 20260506124251 | 16 | 178 | 6.4 | 8.0 | 0.13 | 0.03 | 0.03 | 83 | 1008.5 |
| 20260506123749 | 16 | 162 | 4.8 | 8.0 | 0.05 | 0.03 | 0.03 | 81 | 1008.6 |
| 20260506123248 | 17 | 188 | 6.4 | 8.0 | 0.05 | 0.00 | 0.00 | 78 | 1008.6 |
| 20260506122744 | 17 | 188 | 6.4 | 8.0 | 0.00 | 0.00 | 0.00 | 78 | 1008.9 |
| 20260506122241 | 17 | 206 | 3.2 | 8.0 | 0.00 | 0.00 | 0.00 | 76 | 1008.7 |
| 20260506121739 | 17 | 196 | 8.0 | 9.7 | 0.00 | 0.00 | 0.00 | 76 | 1009.0 |
| 20260506121235 | 17 | 159 | 8.0 | 9.7 | 0.00 | 0.00 | 0.00 | 75 | 1009.1 |
| 20260506120733 | 17 | 186 | 6.4 | 11.3 | 0.00 | 0.00 | 0.00 | 75 | 1008.9 |
| 20260506120231 | 17 | 207 | 6.4 | 14.5 | 0.00 | 0.00 | 0.00 | 73 | 1008.8 |
| 20260506115728 | 17 | 213 | 4.8 | 8.0 | 0.00 | 0.00 | 0.00 | 73 | 1009.0 |